Regional Weather Roundup
Issued by NWS

Home | Current Version | Previous Version | Text Only | Print | Product List | Glossary On
Versions: 1 2 3 4 5 6 7 8 9 10 11 12 13 14 15 16 17 18 19 20 21 22 23 24 25 26 27 28 29 30 31 32 33 34 35 36 37 38 39 40 41 42 43 44 45 46 47 48 49 50
000
ASUS43 KBIS 212320
RWRND

NORTH DAKOTA REGIONAL WEATHER ROUNDUP
NATIONAL WEATHER SERVICE BISMARCK ND
500 PM CST SUN DEC 21 2014

NOTE: "FAIR" INDICATES FEW OR NO CLOUDS BELOW 12,000 FEET WITH NO
SIGNIFICANT WEATHER AND/OR OBSTRUCTIONS TO VISIBILITY.


NDZ001>003-009>011-017-220000-
NORTHWEST NORTH DAKOTA

CITY           SKY/WX    TMP DP  RH WIND       PRES   REMARKS
WILLISTON      CLOUDY    35  28  75 CALM      29.34R
MINOT          CLOUDY    35  31  85 E8        29.39R
MINOT AFB      CLOUDY    32  32 100 E12       29.39R
$$

NDZ018>021-031>035-040>046-220000-
SOUTHWEST NORTH DAKOTA

CITY           SKY/WX    TMP DP  RH WIND       PRES   REMARKS
BISMARCK       CLEAR     29  25  85 SE7       29.43S
DICKINSON      CLOUDY    38  28  67 S5        29.33S
GARRISON         N/A     33  29  85 SE9       29.39R
HETTINGER ARPT CLOUDY    39  30  70 CALM      29.38R
$$

NDZ004>008-012>016-024-026-027-054-220000-
NORTHEAST NORTH DAKOTA

CITY           SKY/WX    TMP DP  RH WIND       PRES   REMARKS
GRAND FORKS    CLOUDY    32  30  92 SE14      29.60S
GRND FRKS AFB  CLOUDY    32  32 100 SE10      29.59S
DEVILS LAKE    CLOUDY    30  25  80 SE13      29.49S
$$

NDZ022-023-025-028>030-036>039-047>053-220000-
SOUTHEAST NORTH DAKOTA

CITY           SKY/WX    TMP DP  RH WIND       PRES   REMARKS
FARGO          CLOUDY    34  31  88 SE14      29.59S
JAMESTOWN      CLOUDY    32  30  92 SE7       29.49S
$$



USA.gov is the U.S. government's official web portal to all federal, state and local government web resources and services.